Flag for Germany Weather past 2 weeks in Hof (Saale), Bavaria, Germany

Now
56 °F

Clear.


Feels Like: 56 °F
Forecast: 33 / 50 °F
Wind: 3 mph from Northwest

Location: Hof

Current Time: Apr 21, 2015 at 10:00:59 PM

Latest Report: Apr 21, 2015 at 9:00 PM


Visibility: 44 mi

Pressure: 30.29 "Hg

Humidity: 32%

Dew point: 26 °F

Location of Hof (Saale)Location

Historic Weather in Hof (Saale) — Graph

°F

Hof (Saale) temperature yesterday

Maximum temperature yesterday: 58 °F (at 6:00 PM)
Minimum temperature yesterday: 32 °F (at 6:00 AM)
Average temperature yesterday: 46 °F

Past Weeks' High & Low Weather Summary

 TemperatureHumidityPressure
High69 °F (Apr 15, 6:00 PM)100% (Apr 10, 5:00 AM)30.64 "Hg (Apr 10, 5:00 AM)
Low26 °F (Apr 7, 7:00 AM)25% (Apr 21, 6:00 PM)29.85 "Hg (Apr 16, 4:00 PM)
Average47 °F67%30.26 "Hg
* Reported Apr 6 9:00 PM — Apr 21 9:00 PM, Hof (Saale), Weather by CustomWeather, © 2015

Note: Actual official high and low records may vary slightly from our data, if they occured in-between our weather recording intervals... More about our weather records

Advertising

Hof (Saale) weather history for previous 24 hours

 ConditionsComfort  
Time TempWeatherWind HumidityBarometerVisibility
9:00 PM
Tue, Apr 21
56 °FClear.3 mph32%30.29 "Hg43 mi
8:00 PM59 °FSunny.5 mph30%30.27 "Hg37 mi
7:00 PM62 °FSunny.7 mph28%30.25 "Hg14 mi
6:00 PM64 °FSunny.7 mph25%30.25 "Hg11 mi
5:00 PM64 °FSunny.8 mph27%30.26 "Hg11 mi
4:00 PM64 °FSunny.7 mph27%30.27 "Hg15 mi
3:00 PM63 °FSunny.6 mph28%30.28 "Hg17 mi
2:00 PM63 °FSunny.5 mph32%30.29 "Hg22 mi
1:00 PM61 °FPassing clouds.3 mph34%30.31 "Hg19 mi
12:00 PM57 °FSunny.3 mph39%30.34 "Hg19 mi
10:00 AM51 °FSunny.2 mph54%30.36 "Hg22 mi
9:00 AM46 °FSunny.2 mph63%30.38 "Hg16 mi
8:00 AM42 °FSunny.2 mph76%30.40 "Hg17 mi
7:00 AM39 °FSunny.1 mph81%30.40 "Hg17 mi
6:00 AM38 °FClear.3 mph85%30.38 "Hg19 mi
4:00 AM39 °FOvercast.2 mph83%30.38 "Hg19 mi
3:00 AM41 °FPassing clouds.2 mph77%30.36 "Hg22 mi
2:00 AM44 °FOvercast.2 mph73%30.34 "Hg25 mi
1:00 AM45 °FOvercast.2 mph68%30.33 "Hg25 mi
12:00 AM47 °FPassing clouds.2 mph64%30.32 "Hg25 mi
10:00 PM
Mon, Apr 20
49 °FPassing clouds.2 mph63%30.30 "Hg25 mi
Weather by CustomWeather, © 2015

See weather overviewHow to use our weather pages